www.pogodaiklimat.ru

Погода и климат >> Архив погоды >> Малайзия >> Лангкави


ПОГОДА в Лангкави

  • Прогноз погоды в Лангкави
  • Монитор погоды в Лангкави

АРХИВ ПОГОДЫ в Лангкави

Время (UTC), дата Ветер
(напр.,м/с)
 
Видим.   Явления Облачность Т
(С)
Тd
(С)
f
(%)
Тe
(С)
Тes
(С)
Комфортность P
(гПа)
Po
(гПа)
Тmin
(С)
Tmax
(С)
R
(мм)
R24
(мм)
S
(см)
12 11.07 СВ 2 12 км мгла 9/4 600 м
[Cu Sc Ac trans Ci sp]
+30.3 +26.0 78 +46 +46 опасность
перегрева
1011.0 1010.2 +32.8
18 11.07 СВ 1 9000 м зарница 9/4 500 м
[Cb cap Ac trans Ci sp]
+28.0 +26.1 89 +42 +42 опасность
перегрева
1011.5 1010.7
00 12.07 СВ 2 10 км мгла 9/3 660 м
[Cu hum Ac lent Ci sp]
+27.5 +25.9 91 +41 +41 опасность
перегрева
1011.4 1010.6 +23.2 3
06 12.07 В 2 10 км гроза без осадков 9/4 500 м
[Cb cap Ac lent Ci sp]
+28.8 +26.0 85 +43 +50 опасность
перегрева
1011.7 1010.9
12 12.07 ЮВ 1 10 км слаб. дождь {гроза} 10/4 800 м
[Sc Ac lent Cs]
+26.8 +25.7 94 +40 +40 очень
душно
1010.8 1010.0 +31.8 1
18 12.07 СВ 2 8000 м зарница {дождь} 9/4 500 м
[Cb cap Ac lent Ci sp]
+26.1 +25.3 95 +38 +38 очень
душно
1011.9 1011.1 0.0
00 13.07 СВ 2 10 км мгла 9/4 500 м
[Cb cap Ac lent Ci sp]
+26.6 +25.3 93 +39 +39 очень
душно
1011.2 1010.4 +26.0 1
06 13.07 СВ 1 12 км в посл. час гроза {дождь} 9/4 500 м
[Cb cap Ac lent Ci sp]
+26.6 +24.8 90 +38 +46 очень
душно
1011.4 1010.6 0.4
12 13.07 СВ 2 8000 м гроза, ливневой дождь 10/4 300 м
[Cb cap Ac lent Cs]
+23.3 +22.6 96 +32 +32 очень
душно
1010.2 1009.3 +31.5 46
18 13.07 В 2 12 км мгла 9/3 800 м
[Sc Ac lent Ci sp]
+24.7 +23.9 95 +34 +34 очень
душно
1011.3 1010.4 0.8
00 14.07 СВ 1 13 км мгла 9/3 600 м
[Cu hum Ac trans Ci sp]
+26.6 +24.8 90 +38 +38 очень
душно
1009.4 1008.6 +23.2 48
06 14.07 С 3 10 км слаб. ливневой дождь 9/5 500 м
[Cb cap Ac trans Cs]
+26.5 +23.7 85 +36 +42 очень
душно
1010.7 1009.9 2
12 14.07 СВ 1 12 км мгла 9/1 800 м
[Sc Ac lent Ci sp]
+27.2 +25.1 88 +39 +39 очень
душно
1008.7 1007.9 +31.1 0.0
18 14.07 В 2 10 км гроза без осадков 9/5 300 м
[Cb cap Ac lent Ci sp]
+25.8 +24.8 94 +37 +37 очень
душно
1009.6 1008.8 4
00 15.07 С 2 5000 м дождь 9/5 500 м
[Cb cap Ac lent Cs]
+25.6 +25.0 96 +36 +37 очень
душно
1009.4 1008.6 +24.9 7
06 15.07 ЮЗ 2 14 км мгла {дождь} 9/4 500 м
[Cb cap Ac lent Ci sp]
+30.4 +26.3 79 +46 +54 опасность
перегрева
1009.1 1008.3 6
12 15.07 штиль 0 13 км мгла 9/3 600 м
[Cu Sc Ac trans Ci sp]
+28.7 +27.0 91 +45 +45 опасность
перегрева
1007.6 1006.8 +31.0 0.2
18 15.07 В 1 13 км слаб. дождь 9/3 800 м
[Sc Ac trans Ci sp]
+26.7 +25.9 95 +40 +40 очень
душно
1008.9 1008.1 0.4
00 16.07 В 2 12 км гроза, ливневой дождь 9/4 300 м
[Cb cap Ac und Cs]
+26.0 +25.6 98 +38 +38 очень
душно
1008.2 1007.4 +25.1 13
06 16.07 ЮЗ 2 5000 м гроза, ливневой дождь 10/4 300 м
[Cb cap Ac und Cs]
+25.2 +24.7 97 +35 +42 очень
душно
1010.0 1009.2 49
12 16.07 В 1 12 км зарница {дождь} 9/4 500 м
[Cb cap Ac lent Ci sp]
+26.7 +25.3 92 +39 +39 очень
душно
1008.8 1008.0 +28.6 2
18 16.07 ЮВ 1 12 км мгла {гроза, дождь} 9/3 800 м
[Sc Ac lent Ci sp]
+24.7 +24.2 97 +34 +34 очень
душно
1009.0 1008.2 5
00 17.07 С 1 12 км мгла 9/3 660 м
[Cu med, cong Ac lent Ci sp]
+25.0 +24.2 95 +34 +35 очень
душно
1007.5 1006.7 +24.3 57
06 17.07 ЮЗ 3 14 км мгла 9/3 660 м
[Cu med, cong Ac lent Ci sp]
+31.1 +26.5 77 +48 +55 опасность
перегрева
1007.2 1006.4
12 17.07 штиль 0 14 км мгла 9/3 800 м
[Sc Ac lent Ci sp]
+29.4 +26.1 82 +44 +44 опасность
перегрева
1006.2 1005.4 +31.7
18 17.07 В 3 14 км гроза без осадков 9/3 500 м
[Cb cap Ac lent Ci sp]
+26.5 +24.3 88 +37 +37 очень
душно
1007.7 1006.9
00 18.07 СВ 1 12 км мгла 9/3 500 м
[Cu hum Ac und Ci sp]
+25.1 +24.5 96 +35 +35 очень
душно
1006.7 1005.9 +25.0 0.8
06 18.07 ЮЗ 3 13 км мгла 9/5 500 м
[Cb cap Ac lent Ci sp]
+30.1 +26.3 80 +46 +51 опасность
перегрева
1006.9 1006.1

 

Местоположение метеостанции Лангкави (Малайзия): широта 6.33 долгота 99.73 высота над уровнем моря 7 м.

В архиве по умолчанию представлена погода в Лангкави за последнюю неделю. Архивные данные за месяц целиком и за предыдущие месяцы, начиная с января 2011 года, Вы можете получить, выбрав интересующий диапазон дат из раскрывающегося списка и нажав кнопку "Ввод!".


*Определитесь, кто Вы:
робот инопланетянин человек

Внимание! Время в таблицах - всемирное. Для получения местного времени необходимо прибавить поправку, которая равна 7 ч.

Смотрите также архив погоды в соседних городах и на ближайших метеорологических станциях:

Погода в Сатуне (Таиланд) (53 км)
Погода в Хо Хонг Агромете (Таиланд) (53 км)
Погода в Алор Стар (Малайзия) (75 км)
Погода в Садао (Таиланд) (91 км)
Погода в Хатъяе (Таиланд) (101 км)
Погода на Авиабазе Баттерворт (Малайзия) (120 км)
Погода в Пенанге (Малайзия) (129 км)
Погода в Транге (Таиланд) (133 км)
Погода в Сонгкхле (Таиланд) (137 км)
Погода в Пхаттхалунг Агромете (Таиланд) (147 км)

Пояснения к столбцам:

Ветер - указаны скорость ветра в м/с - средняя за 10 мин, порывы в срок и между сроками (в фигурных скобках) и направление, откуда дует ветер: С - северный, СВ - северо-восточный, В - восточный, ЮВ - юго-восточный, Ю - южный, ЮЗ - юго-западный, З - западный, СЗ - северо-западный.
Видимость - горизонтальная дальность видимости в метрах или километрах. При видимости от 1 до 10 км при отсутствии осадков обычно наблюдается дымка, при ухудшении видимости до 1 км и менее - туман. В сухую погоду видимость может ухудшаться дымом, пылью или мглою.
Явления - указаны атмосферные явления, наблюдавшиеся в срок или в последний час перед сроком; фигурными скобками обозначены явления, наблюдавшиеся между сроками (за 1-3 часа до срока); квадратными скобками обозначены град или гололедные отложения с указанием их диаметра в мм.
Облачность - указаны через наклонную черту общая и нижняя облачность в баллах и высота нижней границы облаков в метрах; квадратными скобками обозначены формы облаков: Ci - перистые, Cs - перисто-слоистые, Cc - перисто-кучевые, Ac - высококучевые, As - высокослоистые, Sc - слоисто-кучевые, Ns - слоисто-дождевые, Cu - кучевые, Cb - кучево-дождевые. Подробнее классификацию облаков см. в Атласе облаков (PDF).
T - Температура воздуха - температура, измеренная на высоте 2 м над землей.
Td - Температура точки росы - температура, при понижении до которой содержащийся в воздухе водяной пар достигнет насыщения.
f - Относительная влажность воздуха - влажноcть воздуха, измеренная на высоте 2 м над землей.
Te - Эффективная температура - температура, которую ощущает одетый по сезону человек в тени. Характеристика душности погоды. При расчете учитывается влияние влажности воздуха и скорости ветра на теплоощущения человека.
Tes - Эффективная температура на солнце - температура, которую ощущает человек, с поправкой на солнечный нагрев. Характеристика знойности погоды. Зависит от высоты солнца над горизонтом, облачности и скорости ветра. Ночью, в пасмурную погоду, а также при ветре 12 м/с и более поправка равна нулю.
P - Атмосферное давление - приведенное к уровню моря атмосферное давление.
Po - Атмосферное давление - измеренное на уровне метеостанции атмосферное давление.
Tmin - Минимальная температура - минимум температуры воздуха на высоте 2 м над землей.
Tmax - Максимальная температура - максимум температуры воздуха на высоте 2 м над землей.
R - Количество осадков - Количество выпавших осадков за период времени, мм. При наведении курсора мыши на число - период времени, за который выпало указанное количество осадков.
R24 - Количество осадков - Количество выпавших осадков за 24 часа, мм.
S - Снежный покров - Высота снежного покрова, см. При наведении курсора мыши на число - состояние снежного покрова и степень покрытия местности в баллах.